YR259 LROP-LROP

Flight info

Callsign YR259
Flight time 0h 5m
Altitude 2000
Route VFR
Aircraft C172/L-SFG/C

Departure

Time 2026-04-30 08:25
Airport Bucharest Henri Coandă International Airport (LROP)

Arrival

Time 2026-04-30 08:30
Airport Bucharest Henri Coandă International Airport (LROP)
Time Latitude Longitude Altitude Speed Heading
2026-04-30 08:13 44.56905 26.09171 303 ft 0 kts 174°
2026-04-30 08:17 44.56899 26.09172 303 ft 2 kts 174°
2026-04-30 08:17 44.56877 26.09174 303 ft 0 kts 199°
2026-04-30 08:17 44.56875 26.09165 303 ft 2 kts 300°
2026-04-30 08:18 44.56873 26.09152 303 ft 4 kts 259°
2026-04-30 08:18 44.56862 26.09025 303 ft 17 kts 260°
2026-04-30 08:18 44.56853 26.08881 301 ft 12 kts 264°
2026-04-30 08:18 44.56844 26.08774 301 ft 9 kts 265°
2026-04-30 08:19 44.56838 26.08704 302 ft 5 kts 263°
2026-04-30 08:19 44.56833 26.08648 303 ft 7 kts 259°
2026-04-30 08:19 44.56840 26.08560 303 ft 7 kts
2026-04-30 08:19 44.56885 26.08555 304 ft 7 kts 354°
2026-04-30 08:20 44.56957 26.08545 305 ft 13 kts 354°
2026-04-30 08:20 44.57055 26.08531 307 ft 16 kts 354°
2026-04-30 08:21 44.57102 26.08523 308 ft 17 kts 354°
2026-04-30 08:21 44.57236 26.08504 309 ft 21 kts 354°
2026-04-30 08:21 44.57392 26.08480 310 ft 24 kts 354°
2026-04-30 08:21 44.57568 26.08454 310 ft 26 kts 353°
2026-04-30 08:22 44.57674 26.08467 310 ft 4 kts 81°
2026-04-30 08:22 44.57675 26.08473 309 ft 0 kts 83°
2026-04-30 08:22 44.57679 26.08633 310 ft 42 kts 83°
2026-04-30 08:22 44.57706 26.09207 379 ft 64 kts 86°
2026-04-30 08:23 44.57763 26.09841 488 ft 67 kts 75°
2026-04-30 08:23 44.57821 26.10500 533 ft 67 kts 77°
2026-04-30 08:23 44.57856 26.11138 618 ft 62 kts 62°
2026-04-30 08:23 44.57929 26.11742 695 ft 64 kts 74°
2026-04-30 08:24 44.58082 26.12281 761 ft 63 kts 37°
2026-04-30 08:24 44.58610 26.12224 693 ft 85 kts 356°
2026-04-30 08:24 44.59165 26.12052 731 ft 79 kts 359°
2026-04-30 08:24 44.59692 26.11859 827 ft 79 kts 357°
2026-04-30 08:25 44.60200 26.11603 987 ft 73 kts 354°
2026-04-30 08:25 44.60587 26.11073 1074 ft 100 kts 282°
2026-04-30 08:25 44.60458 26.10090 1125 ft 108 kts 258°
2026-04-30 08:25 44.60248 26.09054 1154 ft 112 kts 262°
2026-04-30 08:26 44.60072 26.07948 1147 ft 118 kts 258°
2026-04-30 08:26 44.59893 26.06766 1052 ft 128 kts 259°
2026-04-30 08:26 44.59603 26.05616 1058 ft 127 kts 245°
2026-04-30 08:26 44.59297 26.04479 1081 ft 120 kts 263°
2026-04-30 08:27 44.59092 26.03343 1127 ft 117 kts 256°
2026-04-30 08:27 44.58535 26.02624 1126 ft 112 kts 171°
2026-04-30 08:27 44.57758 26.02565 1112 ft 108 kts 181°
2026-04-30 08:27 44.57054 26.02426 1071 ft 89 kts 137°
2026-04-30 08:28 44.56911 26.02989 1032 ft 57 kts 57°
2026-04-30 08:28 44.57061 26.03466 1107 ft 53 kts 65°
2026-04-30 08:28 44.57183 26.04007 1079 ft 63 kts 63°
2026-04-30 08:28 44.57277 26.04627 1038 ft 66 kts 73°
2026-04-30 08:29 44.57373 26.05245 994 ft 66 kts 73°
2026-04-30 08:29 44.57432 26.05917 899 ft 70 kts 73°
2026-04-30 08:29 44.57491 26.06544 645 ft 57 kts 72°
2026-04-30 08:29 44.57564 26.07069 598 ft 56 kts 69°
2026-04-30 08:30 44.57591 26.07637 532 ft 63 kts 75°
2026-04-30 08:30 44.57646 26.08096 419 ft 69 kts 76°
2026-04-30 08:30 44.57678 26.08696 310 ft 47 kts 81°
2026-04-30 08:30 44.57706 26.09059 310 ft 43 kts 81°
2026-04-30 08:31 44.57737 26.09618 403 ft 62 kts 77°
2026-04-30 08:31 44.57830 26.10178 513 ft 58 kts 51°
2026-04-30 08:31 44.58225 26.10324 565 ft 69 kts 352°
2026-04-30 08:31 44.58723 26.10175 621 ft 74 kts 360°
2026-04-30 08:32 44.59240 26.10001 715 ft 79 kts 341°
2026-04-30 08:32 44.59380 26.09225 819 ft 97 kts 261°
2026-04-30 08:32 44.59084 26.08335 839 ft 105 kts 239°
2026-04-30 08:32 44.58714 26.07452 847 ft 104 kts 264°
2026-04-30 08:33 44.58600 26.06433 861 ft 111 kts 269°
2026-04-30 08:33 44.58563 26.05368 951 ft 111 kts 269°
2026-04-30 08:33 44.58107 26.04713 1027 ft 96 kts 176°
2026-04-30 08:33 44.57439 26.04671 989 ft 89 kts 139°
2026-04-30 08:34 44.57262 26.05237 868 ft 58 kts 56°
2026-04-30 08:34 44.57369 26.05777 794 ft 58 kts 65°
2026-04-30 08:34 44.57474 26.06358 705 ft 64 kts 67°
2026-04-30 08:34 44.57511 26.06633 665 ft 66 kts 68°
2026-04-30 08:35 44.57548 26.06996 597 ft 69 kts 76°
2026-04-30 08:35 44.57603 26.07671 483 ft 64 kts 79°
2026-04-30 08:35 44.57645 26.08184 377 ft 48 kts 75°
2026-04-30 08:36 44.57679 26.08643 323 ft 42 kts 78°
2026-04-30 08:36 44.57691 26.08970 310 ft 26 kts 82°
2026-04-30 08:36 44.57711 26.09183 310 ft 20 kts 75°
2026-04-30 08:36 44.57727 26.09374 310 ft 19 kts 81°
2026-04-30 08:37 44.57742 26.09557 311 ft 17 kts 75°
2026-04-30 08:37 44.57756 26.09708 313 ft 15 kts 74°
2026-04-30 08:37 44.57769 26.09856 313 ft 15 kts 85°
2026-04-30 08:37 44.57758 26.09995 313 ft 14 kts 154°
2026-04-30 08:38 44.57724 26.09973 313 ft 0 kts 240°
2026-04-30 08:39 44.57719 26.09961 313 ft 4 kts 232°
2026-04-30 08:39 44.57674 26.09874 313 ft 17 kts 237°
2026-04-30 08:39 44.57563 26.09830 311 ft 16 kts 172°
2026-04-30 08:39 44.57463 26.09842 310 ft 12 kts 175°
2026-04-30 08:40 44.57389 26.09852 310 ft 8 kts 172°
2026-04-30 08:40 44.57364 26.09836 310 ft 3 kts 263°
2026-04-30 08:40 44.57362 26.09766 310 ft 11 kts 283°
2026-04-30 08:40 44.57396 26.09725 310 ft 1 kts 276°
2026-04-30 08:41 44.57391 26.09711 310 ft 6 kts 191°
2026-04-30 08:41 44.57393 26.09714 310 ft 6 kts 319°
2026-04-30 08:41 44.57395 26.09712 310 ft 0 kts 323°